Change the Weather History Date:

Tuesday, September 10, 2013

  Actual Average Record
Temperature  
Mean Temperature 81 °F -  
Max Temperature 89 °F 91 °F - ()
Min Temperature 73 °F 75 °F - ()
Cooling Degree Days 16    
Growing Degree Days 31 (Base 50)    
Moisture  
Dew Point 68 °F    
Average Humidity 65    
Maximum Humidity 94    
Minimum Humidity 29    
Precipitation  
Precipitation 0.00 in 0.05 in - ()
Sea Level Pressure  
Sea Level Pressure 29.88 in    
Wind  
Wind Speed 7 mph ()    
Max Wind Speed 16 mph    
Max Gust Speed -    
Visibility 8.3 miles    
Events Rain    
T = Trace of Precipitation, MM = Missing Value Source: Averaged Metar Reports

Daily Weather History Graph

Daily Weather History Graph

Search for Another Location

Airport or City:

Trip Planner

Search our weather history database for the weather conditions in past years. The results will help you decide how hot, cold, wet, or windy it might be!

Date:

Astronomy

Sep. 10, 2013 Rise Set
Actual Time 6:44 AM ACST 6:42 PM ACST
Civil Twilight 6:23 AM ACST 7:03 PM ACST
Nautical Twilight 5:58 AM ACST 7:28 PM ACST
Astronomical Twilight 5:34 AM ACST 7:52 PM ACST
Moon 9:58 AM ACST (9/10) 10:54 PM ACST (9/10)
Length of Visible Light 12h 40m
Length of Day
11h 57m
Waxing Crescent, 22% of the Moon is Illuminated
Sep 10
Waxing Crescent
Sep 13
First Quarter
Sep 19
Full
Sep 27
Last Quarter
Oct 5
New

Hourly Weather History & Observations

Time (ACST) Temp. Heat Index Dew Point Humidity Pressure Visibility Wind Dir Wind Speed Gust Speed Precip Events Conditions
12:00 AM 79 °F - 72 °F 74% 29.92 in 12 mi West 9.2 mph - -   Smoke
12:30 AM 78 °F - 72 °F 77% 29.92 in - WSW 9.2 mph - -  
12:30 AM 78.8 °F - 71.6 °F 78% 29.92 in 6.2 mi WSW 9.2 mph - N/A   Mostly Cloudy
1:30 AM 78.8 °F - 71.6 °F 78% 29.89 in 6.2 mi NW 5.8 mph - N/A   Mostly Cloudy
2:00 AM 77.0 °F - 73.4 °F 89% 29.89 in 6.2 mi North 8.1 mph - N/A Rain Light Rain Showers
2:30 AM 77.0 °F - 71.6 °F 83% 29.89 in 6.2 mi North 6.9 mph - N/A Rain Light Rain Showers
3:00 AM 76 °F - 72 °F 84% 29.89 in 19 mi North 3.5 mph - -   Partly Cloudy
3:00 AM 77.0 °F - 71.6 °F 83% 29.89 in 6.2 mi North 3.5 mph - N/A   Mostly Cloudy
3:30 AM 76 °F - 73 °F 86% 29.89 in - North 5.8 mph - -  
3:30 AM 75.2 °F - 73.4 °F 94% 29.89 in 6.2 mi North 5.8 mph - N/A   Mostly Cloudy
4:00 AM 77.0 °F - 73.4 °F 89% 29.89 in 6.2 mi NE 4.6 mph - N/A   Mostly Cloudy
4:30 AM 75.2 °F - 73.4 °F 94% 29.89 in 6.2 mi NNE 4.6 mph - N/A   Scattered Clouds
5:00 AM 75.2 °F - 73.4 °F 94% 29.89 in 6.2 mi NNE 5.8 mph - N/A   Scattered Clouds
5:30 AM 75.2 °F - 71.6 °F 89% 29.89 in 6.2 mi East 4.6 mph - N/A   Scattered Clouds
6:00 AM 74 °F - 72 °F 92% 29.90 in 16 mi East 4.6 mph - -   Smoke
6:00 AM 75.2 °F - 71.6 °F 89% 29.89 in 6.2 mi East 4.6 mph - N/A   Scattered Clouds
6:30 AM 74 °F - 72 °F 91% 29.92 in - East 5.8 mph - -  
6:30 AM 73.4 °F - 71.6 °F 94% 29.92 in 6.2 mi East 5.8 mph - N/A   Scattered Clouds
7:00 AM 73.4 °F - 71.6 °F 94% 29.92 in 6.2 mi East 6.9 mph - N/A   Scattered Clouds
7:30 AM 75.2 °F - 71.6 °F 89% 29.92 in 6.2 mi East 9.2 mph - N/A   Scattered Clouds
8:00 AM 77.0 °F - 71.6 °F 83% 29.92 in 6.2 mi East 9.2 mph - N/A   Scattered Clouds
8:30 AM 78.8 °F - 71.6 °F 78% 29.92 in 6.2 mi East 6.9 mph - N/A   Scattered Clouds
9:00 AM 81 °F - 68 °F 56% 29.94 in 19 mi NE 8.1 mph - -   Partly Cloudy
9:00 AM 80.6 °F 83.2 °F 68.0 °F 65% 29.95 in - NE 8.1 mph - N/A   Clear
9:30 AM 82 °F - 67 °F 53% 29.95 in - East 5.8 mph - -  
9:30 AM 82.4 °F 85.4 °F 68.0 °F 62% 29.95 in 6.2 mi East 5.8 mph - N/A   Partly Cloudy
10:00 AM 84.2 °F 86.6 °F 66.2 °F 55% 29.95 in 6.2 mi NNE 6.9 mph - N/A   Partly Cloudy
10:30 AM 84.2 °F 86.6 °F 66.2 °F 55% 29.95 in 6.2 mi North 5.8 mph - N/A   Partly Cloudy
11:00 AM 86.0 °F 86.6 °F 62.6 °F 45% 29.92 in 6.2 mi North 4.6 mph - N/A   Partly Cloudy
11:30 AM 87.8 °F 91.4 °F 68.0 °F 52% 29.92 in 6.2 mi NNE 5.8 mph - N/A   Partly Cloudy
12:00 PM 87 °F - 66 °F 39% 29.90 in 19 mi West 9.2 mph - -   Partly Cloudy
12:00 PM 86.0 °F 88.2 °F 66.2 °F 51% 29.89 in 6.2 mi West 9.2 mph - N/A   Partly Cloudy
12:30 PM 86.0 °F 89.4 °F 68.0 °F 55% 29.89 in 6.2 mi WNW 10.4 mph - N/A   Partly Cloudy
1:00 PM 87.8 °F 91.4 °F 68.0 °F 52% 29.86 in 6.2 mi WNW 11.5 mph - N/A   Partly Cloudy
1:30 PM 87.8 °F 91.4 °F 68.0 °F 52% 29.86 in 6.2 mi NNW 11.5 mph - N/A   Partly Cloudy
2:00 PM 87.8 °F 89.4 °F 64.4 °F 46% 29.83 in 6.2 mi NNW 13.8 mph - N/A   Partly Cloudy
2:30 PM 89.6 °F 91.1 °F 64.4 °F 43% 29.83 in 6.2 mi North 13.8 mph - N/A   Partly Cloudy
3:00 PM 88 °F - 65 °F 37% 29.82 in 19 mi North 12.7 mph - -   Partly Cloudy
3:00 PM 87.8 °F 90.4 °F 66.2 °F 49% 29.83 in 6.2 mi North 12.7 mph - N/A   Partly Cloudy
3:30 PM 88 °F - 62 °F 32% 29.81 in - North 11.5 mph - -  
3:30 PM 87.8 °F 88.5 °F 62.6 °F 43% 29.80 in 6.2 mi North 11.5 mph - N/A   Partly Cloudy
4:00 PM 89.6 °F 89.5 °F 60.8 °F 38% 29.80 in 6.2 mi North 12.7 mph - N/A   Partly Cloudy
4:30 PM 87.8 °F 87.1 °F 59.0 °F 38% 29.80 in 6.2 mi North 16.1 mph - N/A   Partly Cloudy
5:00 PM 89.6 °F 88.9 °F 59.0 °F 36% 29.80 in 6.2 mi North 11.5 mph - N/A   Partly Cloudy
5:30 PM 87.8 °F 87.1 °F 59.0 °F 38% 29.80 in - North 13.8 mph - N/A   Clear
6:00 PM 86 °F - 58 °F 29% 29.81 in 19 mi NW 12.7 mph - -   Partly Cloudy
6:00 PM 86.0 °F 85.4 °F 59.0 °F 40% 29.80 in - NW 12.7 mph - N/A   Clear
6:30 PM 82 °F - 70 °F 58% 29.82 in - WNW 11.5 mph - -  
6:30 PM 82.4 °F 86.3 °F 69.8 °F 66% 29.80 in - WNW 11.5 mph - N/A   Clear
7:00 PM 80.6 °F 82.7 °F 66.2 °F 61% 29.83 in - WNW 9.2 mph - N/A   Clear
7:30 PM 80.6 °F 82.3 °F 64.4 °F 58% 29.83 in - WNW 8.1 mph - N/A   Clear
8:00 PM 80.6 °F 82.3 °F 64.4 °F 58% 29.83 in - West 5.8 mph - N/A   Clear
8:30 PM 80.6 °F 82.7 °F 66.2 °F 61% 29.86 in - WNW 6.9 mph - N/A   Clear
9:00 PM 80 °F - 68 °F 58% 29.87 in 19 mi West 9.2 mph - -   Smoke
9:00 PM 80.6 °F 83.2 °F 68.0 °F 65% 29.86 in - West 9.2 mph - N/A   Clear
9:30 PM 79 °F - 70 °F 68% 29.88 in - West 8.1 mph - -  
9:30 PM 78.8 °F - 69.8 °F 74% 29.86 in - West 8.1 mph - N/A   Clear
10:00 PM 78.8 °F - 71.6 °F 78% 29.89 in - West 8.1 mph - N/A   Clear
10:30 PM 78.8 °F - 71.6 °F 78% 29.89 in 6.2 mi West 6.9 mph - N/A   Scattered Clouds
11:00 PM 80.6 °F 84.6 °F 71.6 °F 74% 29.89 in 6.2 mi WNW 9.2 mph - N/A   Scattered Clouds
11:30 PM 80.6 °F 83.9 °F 69.8 °F 70% 29.89 in 6.2 mi NW 10.4 mph - N/A   Scattered Clouds